Regional Weather Roundup
Issued by NWS Upton, NY

Current Version | Previous Version | Text Only | Print | Product List | Glossary On
Versions: 1 2 3 4 5 6 7 8 9 10 11 12 13 14 15 16 17 18 19 20 21 22 23 24 25 26 27
000
ASUS41 KOKX 211108
RWROKX

Regional Weather Roundup
National Weather Service New York NY
600 AM EST SUN JAN 21 2018

Note: "FAIR" indicates few or no clouds below 12,000 feet with no
significant weather and/or obstructions to visibility.

NYZ071-072-176-178-NJZ106-104-211200-
New York City Metro Area

CITY           SKY/WX    TMP DP  RH WIND       PRES   REMARKS
Central Park   FAIR      43  28  55 W5        30.13R
Bronx Bot Gard   N/A     41  28  60 W3        30.13R
Bronx Lehman C NOT AVBL
LaGuardia Arpt FAIR      44  27  51 W5        30.11R
Queens College   N/A     43  30  61 W3          N/A
Kennedy Intl   FAIR      33  29  85 W10       30.12R WCI  25
Breezy Point     N/A     37 N/A N/A W7          N/A  WCI  32
Brooklyn Coll  NOT AVBL
Staten Island    N/A     39  30  70 W3          N/A
Newark/Liberty FAIR      36  28  73 SW5       30.12R WCI  32
Teterboro      FAIR      31  26  82 CALM      30.11R
$$

NYZ177-179-078>081-211200-
Long Island New York

CITY           SKY/WX    TMP DP  RH WIND       PRES   REMARKS
Jones Beach      N/A     37 N/A N/A W7          N/A  WCI  32
Wantagh          N/A     36  30  80 W5          N/A  WCI  32
Matinecock Pt    N/A     36 N/A N/A W7          N/A  WCI  30
Farmingdale    FAIR      34  28  79 W5        30.11R WCI  30
MacArthur/ISP  FAIR      33  26  75 CALM      30.10R
Shirley        FAIR      29  26  89 CALM      30.11R
Mt Sinai Harb    N/A    N/A N/A N/A W5          N/A
Westhampton    FAIR      23  19  85 CALM      30.12R
East Hampton   FAIR      30  26  86 CALM      30.10R
Southold         N/A     34  30  86 SW2         N/A
Montauk          N/A     39  30  70 CALM      30.10R
$$

NYZ052-065-067-211200-
Hudson Valley

CITY           SKY/WX    TMP DP  RH WIND       PRES   REMARKS
White Plains   FAIR      27  25  92 NW6       30.09R WCI  20
Larchmont Harb   N/A     37 N/A N/A W3          N/A
Croton On Huds   N/A    N/A N/A N/A E1          N/A
Somers           N/A     36  28  75 S2          N/A
Brewster       NOT AVBL
Newburgh       CLEAR     30  27  86 W7        30.10R WCI  23
Montgomery     FAIR      34  26  72 W8        30.08R WCI  27
Otisville        N/A     34  28  80 S6          N/A  WCI  29
Warwick          N/A     28  25  86 SE1         N/A
Suffern          N/A     37  28  70 SW2         N/A
Poughkeepsie   FAIR      22  18  85 CALM      30.10R
Albany         CLOUDY    37  28  70 NW6       30.11R WCI  32
$$

NJZ001-105-106-008-010-013-015-019>022-104-211200-
New Jersey

CITY           SKY/WX    TMP DP  RH WIND       PRES   REMARKS
Newark/Liberty FAIR      36  28  73 SW5       30.12R WCI  32
Teterboro      FAIR      31  26  82 CALM      30.11R
Caldwell       FAIR      27  26  96 CALM      30.13R
Somerville     FAIR      25  24  96 CALM      30.12R
Linden         FAIR      34  27  74 CALM      30.13R
Perth Amboy      N/A     34 N/A N/A NW5         N/A  WCI  30
Sussex         FAIR      20  19  96 CALM      30.11R
Andover          N/A     22  21  96 CALM      30.12R
Trenton        FAIR      39  29  67 W5        30.13R
Millville      FAIR      25  23  92 CALM      30.15R
Atlantic City  FAIR      26  22  84 NW3       30.16R
Wrightstown    FAIR      40  29  66 NW8       30.12R WCI  34
Toms River     FAIR      27  25  92 CALM      30.15R
Belmar         FAIR      37  28  70 W7        30.14R WCI  32
$$

PAZ047>061-062-071-211200-
Eastern Pennsylvania

CITY           SKY/WX    TMP DP  RH WIND       PRES   REMARKS
Philadelphia   FAIR      31  27  85 CALM      30.16R
Allentown      FAIR      33  25  72 SW7       30.13R WCI  27
Scranton       FAIR      28  25  88 CALM      30.11R
$$

CTZ002-004>006-009-010-012-RIZ004-006-007-MAZ004-011-015-211200-
Southern New England

 In CT

CITY           SKY/WX    TMP DP  RH WIND       PRES   REMARKS
Bradley Intl   FAIR      25  22  88 CALM      30.09R
Hartford       FAIR      24  24 100 CALM      30.09R
Danbury        FAIR      25  22  88 CALM      30.11R
Wtrbury/Oxford FAIR      32  26  78 W3        30.08R
Norwalk Harbor   N/A     32 N/A N/A W5          N/A  WCI  27
Bridgeport     FAIR      29  25  85 NW3       30.10R
Meriden        FAIR      23  21  92 CALM      30.10R
New Haven      FAIR      26  22  84 N3        30.09R
Chester        FAIR      39  27  60 NW6       30.08R WCI  35
Groton         FAIR      28  24  85 CALM      30.08R
Willimantic    FAIR      36  27  69 CALM      30.07R

 In RI

CITY           SKY/WX    TMP DP  RH WIND       PRES   REMARKS
Providence     FAIR      38  29  70 W3        30.07R
Block Island   FAIR      39  29  67 W8        30.09R WCI  33
Westerly       FAIR      39  29  67 W3        30.09R

In MA

CITY           SKY/WX    TMP DP  RH WIND       PRES   REMARKS
Boston         CLOUDY    36  29  75 CALM      30.07R
Worcester      FAIR      35  25  66 NW13      30.03R WCI  26
Westfield      FAIR      37  29  72 N7        30.07R WCI  32
Provincetown   FAIR      35  31  85 W8        30.08R WCI  29
Nantucket      FAIR      38  31  76 NW9       30.07R WCI  31
$$

ANZ330-335-338-340-345-350-353-355-211200-
Coastal Marine Observations


STATION/POSITION TIME  SKY/WX   TEMP    WIND        PRES    VSBY  WAVE
                                AIR SEA DIR/SP/G                  HT/PER
                 (UTC)          (F)     (DEG/KT/KT) (MB)    (MI)  (FT/S)
NY Harb Entrance 0950            40 38  270/  4/  4 1019.0          3/ 7
20 S Fire Island 0950            42 41  290/ 10/ 12 1019.2          3/ 7
15 E Barnegat Li 1030               42                N/A           3/ 7
Hudson Canyon    0950            48 49  300/ 12/ 16 1018.7          5/ 7
Kings Point      1048            38 33   CALM  /  2 1020.4
Execution Rocks  NOT AVBL
Western LI Sound NOT AVBL
Central LI Sound 1030            36     310/  4/  4   N/A           0
Robbins Reef     1048            40     270/  8/  9 1020.3
$$


>>>>>>>>>>>>>>>>>>>>>>>>>>>> KEY <<<<<<<<<<<<<<<<<<<<<<<<<<<
>                                                          <
>     SKY/WX - Sky Condition/Present Weather               <
>     TMP    - Temperature in Fahrenheit                   <
>     DP     - Dew Point in Fahrenheit                     <
>     RH     - Relative Humidity in Percent                <
>     WIND   - Direction (from) and Speed in MPH           <
>     PRES   - Mean Sea Level Pressure (inches of Hg)      <
>     WCI    - Wind Chill Index                            <
>     VSB    - Visibility in Miles                         <
>     HX     - Heat Index                                  <
>     TC     - Temperature in Celsius                      <
>     VRB    - Varibale Wind Direction                     <
>                                                          <
>>>>>>>>>>>>>>>>>>>>>>>>>>>> KEY <<<<<<<<<<<<<<<<<<<<<<<<<<<




USA.gov is the U.S. government's official web portal to all federal, state and local government web resources and services.